Location: Krasnoyarskiy Pitomnik
(51.1333°N, 71.6167°E)
Time: 21:36:06
(UTC+00:00)

A-11 Canister half - Pass Details

Date: 23 April 2024
Orbit: 1525 x 1683 km, 47.3° (Epoch: 19 May)

Event Time Altitude Azimuth Distance (km) Brightness Sun altitude
Rises 01:35:02 0° 242° (WSW) 4,870 11.1 13.4°
Reaches altitude 10° 01:38:10 10° 239° (WSW) 3,901 10.7 13.9°
Maximum altitude 01:48:00 63° 162° (SSE) 1,842 9.8 15.5°
Drops below altitude 10° 01:57:58 10° 85° (E) 3,948 13.6 17.0°
Sets 02:01:10 0° 82° (E) 4,931 13.3 17.5°
